• Join FlightAware (Why Join?)
  • Login
  • US Flag 
10:39AM EST


 

Airport Tracker/Info


-or-


 

Live Flight TrackerFlight Track Log ✈ AAY835 ✈ 27-Apr-2012 ✈ KGSO - KPIE

Flight Track Log - Related Links

Times and Time Zones

All times are in EDT time to prevent confusion due to time zone crossing. See the AAY835 flight status page for this flight to view local times or setup timezone preferences in your user account.

Time Position Orientation Groundspeed Altitude Reporting Facility
EDT Latitude Longitude Course Direction KTS MPH feet Rate Location/Type
04:19PM 36.0675 -79.8311 199° South 266 306 4,800  Level Atlanta Center
04:20PM 35.9997 -79.8603 212° Southwest 273 314 7,500 2,900 Climbing Atlanta Center
04:21PM 35.9347 -79.9097 211° Southwest 273 314 10,600 2,033 Climbing Atlanta Center
04:22PM 35.8592 -79.9647 216° Southwest 290 334 11,600 1,636 Climbing Atlanta Center
04:23PM 35.7842 -80.0325 230° Southwest 342 394 13,900 2,370 Climbing Atlanta Center
04:24PM 35.7164 -80.1306 229° Southwest 367 422 16,300 2,319 Climbing Atlanta Center
04:25PM 35.6406 -80.2389 229° Southwest 409 471 18,500 2,150 Climbing Atlanta Center
04:26PM 35.5686 -80.3394 204° Southwest 409 471 20,600 2,050 Climbing Atlanta Center
04:27PM 35.4597 -80.3978 200° South 410 472 22,600 1,300 Climbing Atlanta Center
04:28PM 35.3444 -80.4486 207° Southwest 427 491 23,200 1,450 Climbing Atlanta Center
04:29PM 35.2256 -80.5225 208° Southwest 440 506 25,500 1,968 Climbing Atlanta Center
04:31PM 35.0017 -80.6650 208° Southwest 421 484 29,300 1,548 Climbing Jacksonville Center
04:32PM 34.9067 -80.7258 205° Southwest 426 490 30,300 950 Climbing Jacksonville Center
04:33PM 34.7972 -80.7892 206° Southwest 426 490 31,200 850 Climbing Jacksonville Center
04:34PM 34.6858 -80.8550 204° Southwest 441 507 32,000 400 Climbing Jacksonville Center
04:35PM 34.5742 -80.9156 204° Southwest 450 518 32,000 250 Level Jacksonville Center
04:36PM 34.4583 -80.9786 199° South 458 527 32,500 500 Climbing Jacksonville Center
04:37PM 34.3297 -81.0319 199° South 452 520 33,000 300 Climbing Jacksonville Center
04:38PM 34.2178 -81.0794 198° South 445 512 33,100 500 Climbing Jacksonville Center
04:39PM 34.1017 -81.1244 198° South 439 505 34,000 450 Climbing Jacksonville Center
04:40PM 33.9833 -81.1719 199° South 447 514 34,000  Level Jacksonville Center
04:41PM 33.8775 -81.2167 198° South 447 514 34,000  Level Jacksonville Center
04:42PM 33.7592 -81.2639 200° South 447 514 34,000  Level Jacksonville Center
04:43PM 33.6450 -81.3133 199° South 442 509 34,000  Level Jacksonville Center
04:44PM 33.5286 -81.3603 198° South 442 509 34,000  Level Jacksonville Center
04:45PM 33.4103 -81.4069 198° South 447 514 34,000  Level Jacksonville Center
04:46PM 33.2919 -81.4539 200° South 447 514 34,000  Level Jacksonville Center
04:47PM 33.1653 -81.5081 198° South 442 509 34,000  Level Jacksonville Center
04:48PM 33.0489 -81.5544 198° South 442 509 34,000  Level Jacksonville Center
04:49PM 32.9303 -81.6006 200° South 442 509 34,000  Level Jacksonville Center
04:50PM 32.8117 -81.6517 197° South 447 514 34,000  Level Jacksonville Center
04:51PM 32.7058 -81.6903 199° South 447 514 34,000  Level Jacksonville Center
04:52PM 32.5789 -81.7411 193° South 437 503 34,000  Level Jacksonville Center
04:53PM 32.4706 -81.7697 189° South 442 509 34,000  Level Jacksonville Center
04:54PM 32.3331 -81.7961 190° South 452 520 34,000  Level Jacksonville Center
04:55PM 32.2100 -81.8219 190° South 452 520 34,000  Level Jacksonville Center
04:56PM 32.0994 -81.8453 190° South 447 514 34,000  Level Jacksonville Center
04:57PM 31.9619 -81.8739 189° South 449 517 34,000  Level Jacksonville Center
04:58PM 31.8536 -81.8947 190° South 449 517 34,000  Level Jacksonville Center
04:59PM 31.7161 -81.9231 191° South 449 517 34,000  Level Jacksonville Center
05:00PM 31.5953 -81.9511 189° South 449 517 34,000  Level Jacksonville Center
05:01PM 31.4847 -81.9717 191° South 449 517 34,000  Level Jacksonville Center
05:02PM 31.3469 -82.0022 190° South 449 517 34,000  Level Jacksonville Center
05:03PM 31.2408 -82.0250 190° South 449 517 34,000  Level Jacksonville Center
05:04PM 31.1156 -82.0506 189° South 449 517 34,000  Level Jacksonville Center
05:05PM 30.9947 -82.0733 190° South 449 517 34,000  Level Jacksonville Center
05:06PM 30.8717 -82.0986 190° South 449 517 34,000  Level Jacksonville Center
05:07PM 30.7506 -82.1239 190° South 449 517 34,000  Level Jacksonville Center
05:08PM 30.6256 -82.1492 189° South 449 517 34,000  Level Jacksonville Center
05:09PM 30.4942 -82.1742 190° South 443 510 34,000 -250 Level Jacksonville Center
05:10PM 30.3669 -82.1992 190° South 458 527 33,500 -900 Descending Jacksonville Center
05:11PM 30.2439 -82.2242 190° South 463 533 32,200 -1,200 Descending Jacksonville Center
05:12PM 30.1208 -82.2489 190° South 458 527 31,100 -1,250 Descending Jacksonville Center
05:13PM 29.9978 -82.2739 190° South 458 527 29,700 -1,350 Descending Jacksonville Center
05:14PM 29.8789 -82.2986 189° South 453 521 28,400 -1,300 Descending Jacksonville Center
05:15PM 29.7619 -82.3208 190° South 441 507 27,100 -1,200 Descending Jacksonville Center
05:16PM 29.6494 -82.3428 182° South 429 494 26,000 -850 Descending Jacksonville Center
05:17PM 29.5325 -82.3483 174° South 423 487 25,400 -800 Descending Jacksonville Center
05:18PM 29.4156 -82.3347 174° South 423 487 24,400 -1,400 Descending Jacksonville Center
05:19PM 29.3028 -82.3211 175° South 423 487 22,600 -2,000 Descending Jacksonville Center
05:20PM 29.1922 -82.3097 174° South 418 481 20,400 -2,200 Descending Jacksonville Center
05:21PM 29.0814 -82.2961 174° South 407 468 18,200 -2,167 Descending Jacksonville Center
05:23PM 28.8706 -82.2714 174° South 391 450 13,900 -1,767 Descending Jacksonville Center
05:24PM 28.7703 -82.2603 177° South 376 433 12,900 -382 Descending Jacksonville Center
05:26PM 28.6167 -82.2500 180° South 346 398 12,900 -382 Level Tampa TRACON
05:27PM 28.5167 -82.2500 199° South 348 400 11,900 -950 Descending Tampa TRACON
05:28PM 28.4333 -82.2833 259° West 353 406 11,000 -650 Descending Tampa TRACON
05:29PM 28.4167 -82.3833 270° West 336 387 10,600 -650 Descending Tampa TRACON
05:30PM 28.4167 -82.4833 270° West 320 368 9,700 -1,150 Descending Tampa TRACON
05:31PM 28.4167 -82.5833 240° Southwest 293 337 8,300 -1,350 Descending Tampa TRACON
05:32PM 28.3833 -82.6500 236° Southwest 274 315 7,000 -1,150 Descending Tampa TRACON
05:33PM 28.3333 -82.7333 190° South 277 319 6,000 -952 Descending Tampa TRACON
05:34PM 28.2500 -82.7500 204° Southwest 267 307 5,000 -952 Descending Tampa TRACON
05:35PM 28.1833 -82.7833 204° Southwest 265 305 4,000 -1,000 Descending Tampa TRACON